| time (UTC) | temp F | wind direction | speed MPH | gust MPH | rain 1hr in | rain 24hr in | rain mn in | humidity % | barometer mb |
| 20260831222657 | 68 | 50 | 0.0 | 0.0 | 0.00 | 0.00 | 0.00 | 64 | 1028.7 |
| 20260831222153 | 69 | 50 | 0.0 | 0.0 | 0.00 | 0.00 | 0.00 | 63 | 1028.6 |
| 20260831221648 | 69 | 50 | 0.0 | 0.0 | 0.00 | 0.00 | 0.00 | 61 | 1028.5 |
| 20260831221143 | 69 | 50 | 0.0 | 0.0 | 0.00 | 0.00 | 0.00 | 60 | 1028.4 |
| 20260831220638 | 69 | 50 | 0.0 | 0.0 | 0.00 | 0.00 | 0.00 | 60 | 1028.6 |
| 20260831220133 | 70 | 50 | 0.0 | 0.0 | 0.00 | 0.00 | 0.00 | 59 | 1028.4 |
| 20260831215629 | 71 | 50 | 0.0 | 0.0 | 0.00 | 0.00 | 0.00 | 60 | 1028.4 |
| 20260831215124 | 71 | 50 | 0.0 | 2.0 | 0.00 | 0.00 | 0.00 | 56 | 1028.3 |
| 20260831214622 | 71 | 50 | 0.0 | 0.0 | 0.00 | 0.00 | 0.00 | 58 | 1028.6 |
| 20260831214118 | 71 | 50 | 0.0 | 1.0 | 0.00 | 0.00 | 0.00 | 57 | 1028.5 |
| 20260831213614 | 71 | 50 | 0.0 | 0.0 | 0.00 | 0.00 | 0.00 | 56 | 1028.5 |
| 20260831213109 | 72 | 50 | 0.0 | 0.0 | 0.00 | 0.00 | 0.00 | 55 | 1028.6 |
| 20260831212605 | 72 | 50 | 0.0 | 0.0 | 0.00 | 0.00 | 0.00 | 57 | 1028.5 |
| 20260831212101 | 72 | 50 | 0.0 | 1.0 | 0.00 | 0.00 | 0.00 | 56 | 1028.5 |
| 20260831211555 | 72 | 50 | 0.0 | 0.0 | 0.00 | 0.00 | 0.00 | 56 | 1028.5 |
| 20260831211054 | 72 | 50 | 0.0 | 1.0 | 0.00 | 0.00 | 0.00 | 55 | 1028.7 |
| 20260831210549 | 72 | 50 | 0.0 | 1.0 | 0.00 | 0.00 | 0.00 | 53 | 1028.2 |
| 20260831210046 | 73 | 50 | 0.0 | 1.0 | 0.00 | 0.00 | 0.00 | 50 | 1028.6 |
| 20260831205545 | 73 | 50 | 0.0 | 0.0 | 0.00 | 0.00 | 0.00 | 47 | 1028.6 |
| 20260831205041 | 74 | 50 | 0.0 | 0.0 | 0.00 | 0.00 | 0.00 | 46 | 1028.4 |
| 20260831204530 | 74 | 50 | 0.0 | 0.0 | 0.00 | 0.00 | 0.00 | 46 | 1028.7 |
| 20260831204028 | 74 | 50 | 0.0 | 1.0 | 0.00 | 0.00 | 0.00 | 45 | 1028.6 |
| 20260831203523 | 75 | 50 | 0.0 | 0.0 | 0.00 | 0.00 | 0.00 | 44 | 1028.4 |
| 20260831203021 | 75 | 50 | 0.0 | 1.0 | 0.00 | 0.00 | 0.00 | 44 | 1028.4 |
| 20260831202516 | 76 | 50 | 0.0 | 0.0 | 0.00 | 0.00 | 0.00 | 44 | 1028.5 |
| 20260831202016 | 77 | 50 | 0.0 | 0.0 | 0.00 | 0.00 | 0.00 | 41 | 1028.8 |
| 20260831201514 | 78 | 50 | 0.0 | 0.0 | 0.00 | 0.00 | 0.00 | 40 | 1028.7 |
| 20260831201010 | 79 | 50 | 0.0 | 0.0 | 0.00 | 0.00 | 0.00 | 39 | 1028.7 |
| 20260831200505 | 81 | 50 | 0.0 | 0.0 | 0.00 | 0.00 | 0.00 | 38 | 1028.7 |
| 20260831195959 | 78 | 50 | 0.0 | 0.0 | 0.00 | 0.00 | 0.00 | 36 | 1028.6 |
| 20260831195455 | 79 | 50 | 0.0 | 0.0 | 0.00 | 0.00 | 0.00 | 35 | 1028.7 |
| 20260831194950 | 82 | 50 | 0.0 | 1.0 | 0.00 | 0.00 | 0.00 | 34 | 1028.7 |
| 20260831194445 | 81 | 50 | 0.0 | 2.0 | 0.00 | 0.00 | 0.00 | 34 | 1028.8 |
| 20260831193945 | 79 | 50 | 0.0 | 0.0 | 0.00 | 0.00 | 0.00 | 34 | 1028.7 |
| 20260831193440 | 81 | 50 | 0.0 | 1.0 | 0.00 | 0.00 | 0.00 | 34 | 1029.1 |
| 20260831192935 | 82 | 50 | 0.0 | 0.0 | 0.00 | 0.00 | 0.00 | 35 | 1029.1 |
| 20260831192430 | 82 | 50 | 0.0 | 1.0 | 0.00 | 0.00 | 0.00 | 31 | 1029.2 |
| 20260831191925 | 81 | 50 | 0.0 | 0.0 | 0.00 | 0.00 | 0.00 | 35 | 1029.2 |
| 20260831191421 | 81 | 50 | 0.0 | 0.0 | 0.00 | 0.00 | 0.00 | 33 | 1029.2 |
| 20260831190917 | 79 | 50 | 0.0 | 0.0 | 0.00 | 0.00 | 0.00 | 33 | 1029.4 |
| 20260831190412 | 79 | 50 | 0.0 | 0.0 | 0.00 | 0.00 | 0.00 | 35 | 1029.1 |
| 20260831185911 | 77 | 50 | 0.0 | 0.0 | 0.00 | 0.00 | 0.00 | 38 | 1029.1 |
| 20260831185408 | 75 | 50 | 0.0 | 0.0 | 0.00 | 0.00 | 0.00 | 39 | 1029.0 |
| 20260831184907 | 74 | 50 | 0.0 | 1.0 | 0.00 | 0.00 | 0.00 | 39 | 1029.2 |
| 20260831184402 | 76 | 50 | 0.0 | 0.0 | 0.00 | 0.00 | 0.00 | 37 | 1029.3 |
| 20260831183857 | 76 | 50 | 0.0 | 0.0 | 0.00 | 0.00 | 0.00 | 41 | 1029.2 |
| 20260831183356 | 73 | 50 | 0.0 | 0.0 | 0.00 | 0.00 | 0.00 | 44 | 1029.6 |
| 20260831182855 | 73 | 50 | 0.0 | 0.0 | 0.00 | 0.00 | 0.00 | 45 | 1029.6 |
| 20260831182351 | 73 | 50 | 0.0 | 0.0 | 0.00 | 0.00 | 0.00 | 45 | 1029.5 |
| 20260831181846 | 71 | 50 | 0.0 | 0.0 | 0.00 | 0.00 | 0.00 | 45 | 1029.6 |
| 20260831181342 | 73 | 50 | 0.0 | 0.0 | 0.00 | 0.00 | 0.00 | 47 | 1029.6 |
| 20260831180836 | 73 | 50 | 0.0 | 0.0 | 0.00 | 0.00 | 0.00 | 49 | 1029.3 |
| 20260831180331 | 73 | 50 | 0.0 | 0.0 | 0.00 | 0.00 | 0.00 | 49 | 1029.6 |
| 20260831175830 | 72 | 50 | 0.0 | 0.0 | 0.00 | 0.00 | 0.00 | 47 | 1029.8 |
| 20260831175326 | 72 | 50 | 0.0 | 0.0 | 0.00 | 0.00 | 0.00 | 49 | 1029.7 |
| 20260831174822 | 72 | 50 | 0.0 | 0.0 | 0.00 | 0.00 | 0.00 | 53 | 1029.7 |
| 20260831174318 | 71 | 50 | 0.0 | 0.0 | 0.00 | 0.00 | 0.00 | 52 | 1029.8 |
| 20260831173816 | 71 | 50 | 0.0 | 0.0 | 0.00 | 0.00 | 0.00 | 49 | 1030.1 |
| 20260831173311 | 71 | 50 | 0.0 | 0.0 | 0.00 | 0.00 | 0.00 | 51 | 1030.0 |
| 20260831172806 | 71 | 50 | 1.0 | 2.0 | 0.00 | 0.00 | 0.00 | 51 | 1030.1 |
| 20260831172301 | 71 | 50 | 0.0 | 0.0 | 0.00 | 0.00 | 0.00 | 51 | 1030.0 |
| 20260831171756 | 71 | 50 | 0.0 | 0.0 | 0.00 | 0.00 | 0.00 | 52 | 1030.0 |
| 20260831171253 | 70 | 50 | 0.0 | 0.0 | 0.00 | 0.00 | 0.00 | 53 | 1030.0 |
| 20260831170749 | 70 | 50 | 0.0 | 0.0 | 0.00 | 0.00 | 0.00 | 54 | 1029.9 |
| 20260831170245 | 70 | 50 | 0.0 | 1.0 | 0.00 | 0.00 | 0.00 | 55 | 1030.1 |
| 20260831165741 | 70 | 50 | 0.0 | 0.0 | 0.00 | 0.00 | 0.00 | 55 | 1030.2 |
| 20260831165238 | 70 | 50 | 0.0 | 1.0 | 0.00 | 0.00 | 0.00 | 55 | 1030.2 |
| 20260831164733 | 70 | 50 | 0.0 | 1.0 | 0.00 | 0.00 | 0.00 | 56 | 1030.5 |
| 20260831164229 | 70 | 50 | 0.0 | 0.0 | 0.00 | 0.00 | 0.00 | 56 | 1030.4 |
| 20260831163724 | 70 | 230 | 0.0 | 1.0 | 0.00 | 0.00 | 0.00 | 55 | 1030.6 |
| 20260831163220 | 70 | 230 | 0.0 | 1.0 | 0.00 | 0.00 | 0.00 | 49 | 1030.4 |
| 20260831162719 | 71 | 230 | 0.0 | 1.0 | 0.00 | 0.00 | 0.00 | 51 | 1030.6 |
| 20260831162218 | 69 | 230 | 0.0 | 1.0 | 0.00 | 0.00 | 0.00 | 50 | 1030.8 |
| 20260831161713 | 71 | 230 | 0.0 | 0.0 | 0.00 | 0.00 | 0.00 | 44 | 1030.5 |
| 20260831161209 | 71 | 230 | 1.0 | 2.0 | 0.00 | 0.00 | 0.00 | 44 | 1030.8 |
| 20260831160708 | 70 | 230 | 0.0 | 1.0 | 0.00 | 0.00 | 0.00 | 50 | 1030.7 |
| 20260831160204 | 70 | 230 | 0.0 | 0.0 | 0.00 | 0.00 | 0.00 | 51 | 1030.7 |
| 20260831155703 | 71 | 230 | 0.0 | 0.0 | 0.00 | 0.00 | 0.00 | 49 | 1030.8 |
| 20260831155159 | 71 | 230 | 0.0 | 2.0 | 0.00 | 0.00 | 0.00 | 52 | 1030.8 |
| 20260831154655 | 71 | 230 | 0.0 | 1.0 | 0.00 | 0.00 | 0.00 | 46 | 1031.0 |
| 20260831154150 | 71 | 230 | 0.0 | 1.0 | 0.00 | 0.00 | 0.00 | 50 | 1030.9 |
| 20260831153649 | 70 | 230 | 0.0 | 1.0 | 0.00 | 0.00 | 0.00 | 46 | 1031.2 |
| 20260831153145 | 71 | 230 | 2.0 | 2.0 | 0.00 | 0.00 | 0.00 | 47 | 1031.0 |
| 20260831152641 | 72 | 230 | 0.0 | 1.0 | 0.00 | 0.00 | 0.00 | 47 | 1031.0 |
| 20260831152137 | 71 | 230 | 0.0 | 1.0 | 0.00 | 0.00 | 0.00 | 45 | 1031.3 |
| 20260831151636 | 70 | 230 | 0.0 | 0.0 | 0.00 | 0.00 | 0.00 | 51 | 1031.1 |
| 20260831151131 | 68 | 230 | 0.0 | 1.0 | 0.00 | 0.00 | 0.00 | 50 | 1031.4 |
| 20260831150626 | 70 | 230 | 0.0 | 1.0 | 0.00 | 0.00 | 0.00 | 49 | 1031.6 |
| 20260831150122 | 70 | 230 | 1.0 | 1.0 | 0.00 | 0.00 | 0.00 | 46 | 1031.4 |
| 20260831145615 | 69 | 230 | 0.0 | 1.0 | 0.00 | 0.00 | 0.00 | 50 | 1031.7 |
| 20260831145112 | 69 | 230 | 0.0 | 0.0 | 0.00 | 0.00 | 0.00 | 50 | 1031.5 |
| 20260831144607 | 68 | 230 | 0.0 | 0.0 | 0.00 | 0.00 | 0.00 | 51 | 1031.5 |
| 20260831144102 | 67 | 230 | 0.0 | 0.0 | 0.00 | 0.00 | 0.00 | 56 | 1031.7 |
| 20260831143556 | 66 | 230 | 0.0 | 0.0 | 0.00 | 0.00 | 0.00 | 52 | 1031.8 |
| 20260831143052 | 65 | 230 | 0.0 | 0.0 | 0.00 | 0.00 | 0.00 | 58 | 1031.9 |
| 20260831142549 | 65 | 230 | 0.0 | 0.0 | 0.00 | 0.00 | 0.00 | 59 | 1031.7 |
| 20260831142044 | 63 | 230 | 0.0 | 1.0 | 0.00 | 0.00 | 0.00 | 63 | 1031.7 |
| 20260831141543 | 65 | 230 | 0.0 | 0.0 | 0.00 | 0.00 | 0.00 | 66 | 1031.5 |
| 20260831141038 | 65 | 230 | 0.0 | 1.0 | 0.00 | 0.00 | 0.00 | 66 | 1031.5 |
| 20260831140537 | 64 | 230 | 0.0 | 0.0 | 0.00 | 0.00 | 0.00 | 66 | 1031.4 |
| 20260831140037 | 65 | 230 | 0.0 | 2.0 | 0.00 | 0.00 | 0.00 | 64 | 1031.7 |
| 20260831135535 | 64 | 230 | 0.0 | 0.0 | 0.00 | 0.00 | 0.00 | 62 | 1031.6 |
| 20260831135030 | 64 | 230 | 0.0 | 0.0 | 0.00 | 0.00 | 0.00 | 67 | 1031.6 |
| 20260831134526 | 64 | 230 | 0.0 | 0.0 | 0.00 | 0.00 | 0.00 | 64 | 1031.7 |
| 20260831134021 | 64 | 230 | 0.0 | 0.0 | 0.00 | 0.00 | 0.00 | 65 | 1031.6 |
| 20260831133515 | 62 | 230 | 0.0 | 0.0 | 0.00 | 0.00 | 0.00 | 66 | 1031.6 |
| 20260831133010 | 62 | 230 | 0.0 | 0.0 | 0.00 | 0.00 | 0.00 | 71 | 1031.7 |
| 20260831132507 | 62 | 230 | 0.0 | 0.0 | 0.00 | 0.00 | 0.00 | 74 | 1031.5 |
| 20260831132006 | 61 | 230 | 0.0 | 0.0 | 0.00 | 0.00 | 0.00 | 74 | 1031.5 |
| 20260831131505 | 61 | 230 | 0.0 | 0.0 | 0.00 | 0.00 | 0.00 | 76 | 1031.5 |
| 20260831131002 | 60 | 230 | 0.0 | 0.0 | 0.00 | 0.00 | 0.00 | 80 | 1031.4 |
| 20260831130457 | 60 | 230 | 0.0 | 0.0 | 0.00 | 0.00 | 0.00 | 82 | 1031.3 |
| 20260831125956 | 60 | 230 | 0.0 | 0.0 | 0.00 | 0.00 | 0.00 | 85 | 1031.4 |
| 20260831125451 | 59 | 230 | 0.0 | 0.0 | 0.00 | 0.00 | 0.00 | 88 | 1031.3 |
| 20260831124947 | 58 | 230 | 0.0 | 0.0 | 0.00 | 0.00 | 0.00 | 90 | 1031.3 |
| 20260831124442 | 58 | 230 | 0.0 | 0.0 | 0.00 | 0.00 | 0.00 | 92 | 1031.4 |
| 20260831123938 | 57 | 230 | 0.0 | 0.0 | 0.00 | 0.00 | 0.00 | 94 | 1031.3 |
| 20260831123437 | 57 | 230 | 0.0 | 0.0 | 0.00 | 0.00 | 0.00 | 94 | 1031.2 |
| 20260831122932 | 56 | 230 | 0.0 | 0.0 | 0.00 | 0.00 | 0.00 | 94 | 1031.2 |
| 20260831122427 | 56 | 230 | 0.0 | 0.0 | 0.00 | 0.00 | 0.00 | 94 | 1031.2 |
| 20260831121922 | 55 | 230 | 0.0 | 0.0 | 0.00 | 0.00 | 0.00 | 94 | 1031.0 |
| 20260831121418 | 55 | 230 | 0.0 | 0.0 | 0.00 | 0.00 | 0.00 | 94 | 1031.2 |
| 20260831120913 | 55 | 230 | 0.0 | 0.0 | 0.00 | 0.00 | 0.00 | 94 | 1031.0 |
| 20260831120408 | 54 | 230 | 0.0 | 0.0 | 0.00 | 0.00 | 0.00 | 94 | 1031.2 |
| 20260831115908 | 54 | 230 | 0.0 | 0.0 | 0.00 | 0.00 | 0.00 | 94 | 1031.1 |
| 20260831115404 | 53 | 230 | 0.0 | 0.0 | 0.00 | 0.00 | 0.00 | 94 | 1031.0 |
| 20260831114903 | 53 | 230 | 0.0 | 0.0 | 0.00 | 0.00 | 0.00 | 94 | 1031.2 |
| 20260831114403 | 53 | 230 | 0.0 | 0.0 | 0.00 | 0.00 | 0.00 | 94 | 1031.2 |
| 20260831113859 | 52 | 230 | 0.0 | 0.0 | 0.00 | 0.00 | 0.00 | 94 | 1031.2 |
| 20260831113353 | 52 | 230 | 0.0 | 0.0 | 0.00 | 0.00 | 0.00 | 94 | 1031.3 |
| 20260831112848 | 52 | 230 | 0.0 | 0.0 | 0.00 | 0.00 | 0.00 | 94 | 1031.1 |
| 20260831112342 | 52 | 230 | 0.0 | 0.0 | 0.00 | 0.00 | 0.00 | 94 | 1031.2 |
| 20260831111838 | 51 | 230 | 0.0 | 0.0 | 0.00 | 0.00 | 0.00 | 94 | 1031.1 |
| 20260831111334 | 51 | 230 | 0.0 | 0.0 | 0.00 | 0.00 | 0.00 | 94 | 1030.8 |
| 20260831110829 | 51 | 230 | 0.0 | 0.0 | 0.00 | 0.00 | 0.00 | 94 | 1031.2 |
| 20260831110324 | 51 | 230 | 0.0 | 0.0 | 0.00 | 0.00 | 0.00 | 94 | 1031.1 |
| 20260831105822 | 51 | 230 | 0.0 | 0.0 | 0.00 | 0.00 | 0.00 | 94 | 1030.9 |
| 20260831105318 | 50 | 230 | 0.0 | 0.0 | 0.00 | 0.00 | 0.00 | 94 | 1030.9 |
| 20260831104818 | 50 | 230 | 0.0 | 0.0 | 0.00 | 0.00 | 0.00 | 94 | 1030.7 |
| 20260831104315 | 50 | 230 | 0.0 | 0.0 | 0.00 | 0.00 | 0.00 | 94 | 1030.7 |
| 20260831103815 | 50 | 230 | 0.0 | 0.0 | 0.00 | 0.00 | 0.00 | 94 | 1030.8 |
| 20260831103310 | 50 | 230 | 0.0 | 0.0 | 0.00 | 0.00 | 0.00 | 94 | 1030.6 |
| 20260831102805 | 50 | 230 | 0.0 | 0.0 | 0.00 | 0.00 | 0.00 | 94 | 1030.7 |
| 20260831102300 | 50 | 230 | 0.0 | 0.0 | 0.00 | 0.00 | 0.00 | 94 | 1030.8 |
| 20260831101755 | 50 | 230 | 0.0 | 0.0 | 0.00 | 0.00 | 0.00 | 94 | 1030.6 |
| 20260831101251 | 50 | 230 | 0.0 | 0.0 | 0.00 | 0.00 | 0.00 | 94 | 1030.6 |
| 20260831100747 | 50 | 230 | 0.0 | 0.0 | 0.00 | 0.00 | 0.00 | 94 | 1030.7 |
| 20260831100243 | 50 | 230 | 0.0 | 0.0 | 0.00 | 0.00 | 0.00 | 94 | 1030.5 |
| 20260831095741 | 51 | 230 | 0.0 | 0.0 | 0.00 | 0.00 | 0.00 | 94 | 1030.6 |
| 20260831095231 | 51 | 230 | 0.0 | 0.0 | 0.00 | 0.00 | 0.00 | 94 | 1030.6 |
| 20260831094725 | 51 | 230 | 0.0 | 0.0 | 0.00 | 0.00 | 0.00 | 94 | 1030.4 |
| 20260831094221 | 51 | 230 | 0.0 | 0.0 | 0.00 | 0.00 | 0.00 | 94 | 1030.2 |
| 20260831093717 | 51 | 230 | 0.0 | 0.0 | 0.00 | 0.00 | 0.00 | 94 | 1030.3 |
| 20260831093212 | 51 | 230 | 0.0 | 0.0 | 0.00 | 0.00 | 0.00 | 94 | 1030.3 |
| 20260831092709 | 51 | 230 | 0.0 | 0.0 | 0.00 | 0.00 | 0.00 | 94 | 1030.3 |
| 20260831092204 | 51 | 230 | 0.0 | 0.0 | 0.00 | 0.00 | 0.00 | 94 | 1030.3 |
| 20260831091703 | 51 | 230 | 0.0 | 0.0 | 0.00 | 0.00 | 0.00 | 94 | 1030.2 |
| 20260831091200 | 51 | 230 | 0.0 | 0.0 | 0.00 | 0.00 | 0.00 | 94 | 1030.1 |
| 20260831090659 | 51 | 230 | 0.0 | 0.0 | 0.00 | 0.00 | 0.00 | 94 | 1030.1 |
| 20260831090156 | 52 | 230 | 0.0 | 0.0 | 0.00 | 0.00 | 0.00 | 94 | 1030.0 |
| 20260831085651 | 52 | 230 | 0.0 | 0.0 | 0.00 | 0.00 | 0.00 | 94 | 1030.0 |
| 20260831085146 | 52 | 230 | 0.0 | 0.0 | 0.00 | 0.00 | 0.00 | 94 | 1029.9 |
| 20260831084642 | 51 | 230 | 0.0 | 0.0 | 0.00 | 0.00 | 0.00 | 94 | 1029.9 |
| 20260831084138 | 51 | 230 | 0.0 | 0.0 | 0.00 | 0.00 | 0.00 | 94 | 1029.7 |
| 20260831083634 | 51 | 230 | 0.0 | 0.0 | 0.00 | 0.00 | 0.00 | 94 | 1029.8 |
| 20260831083129 | 51 | 230 | 0.0 | 0.0 | 0.00 | 0.00 | 0.00 | 94 | 1029.5 |
| 20260831082627 | 52 | 230 | 0.0 | 0.0 | 0.00 | 0.00 | 0.00 | 94 | 1029.6 |
| 20260831082123 | 52 | 230 | 0.0 | 0.0 | 0.00 | 0.00 | 0.00 | 94 | 1029.7 |
| 20260831081618 | 52 | 230 | 0.0 | 0.0 | 0.00 | 0.00 | 0.00 | 94 | 1029.6 |
| 20260831081114 | 52 | 230 | 0.0 | 0.0 | 0.00 | 0.00 | 0.00 | 94 | 1029.6 |
| 20260831080609 | 52 | 230 | 0.0 | 0.0 | 0.00 | 0.00 | 0.00 | 94 | 1029.5 |
| 20260831080104 | 52 | 230 | 0.0 | 0.0 | 0.00 | 0.00 | 0.00 | 94 | 1029.4 |
| 20260831075600 | 52 | 230 | 0.0 | 0.0 | 0.00 | 0.00 | 0.00 | 94 | 1029.3 |
| 20260831075055 | 53 | 230 | 0.0 | 0.0 | 0.00 | 0.00 | 0.00 | 94 | 1029.5 |
| 20260831074554 | 53 | 230 | 0.0 | 0.0 | 0.00 | 0.00 | 0.00 | 94 | 1029.3 |
| 20260831074049 | 53 | 230 | 0.0 | 0.0 | 0.00 | 0.00 | 0.00 | 94 | 1029.3 |
| 20260831073544 | 53 | 230 | 0.0 | 0.0 | 0.00 | 0.00 | 0.00 | 94 | 1029.0 |
| 20260831073043 | 53 | 230 | 0.0 | 0.0 | 0.00 | 0.00 | 0.00 | 94 | 1029.2 |
| 20260831072538 | 53 | 230 | 0.0 | 0.0 | 0.00 | 0.00 | 0.00 | 94 | 1029.2 |
| 20260831072035 | 53 | 230 | 0.0 | 0.0 | 0.00 | 0.00 | 0.00 | 94 | 1029.1 |
| 20260831071533 | 53 | 230 | 0.0 | 0.0 | 0.00 | 0.00 | 0.00 | 94 | 1029.0 |
| 20260831071029 | 54 | 230 | 0.0 | 0.0 | 0.00 | 0.00 | 0.00 | 94 | 1029.1 |
| 20260831070528 | 53 | 230 | 0.0 | 0.0 | 0.00 | 0.00 | 0.00 | 94 | 1029.0 |
| 20260831070023 | 54 | 230 | 0.0 | 0.0 | 0.00 | 0.00 | 0.00 | 94 | 1029.0 |
| 20260831065521 | 54 | 230 | 0.0 | 0.0 | 0.00 | 0.00 | 0.00 | 94 | 1029.1 |
| 20260831065015 | 54 | 230 | 0.0 | 0.0 | 0.00 | 0.00 | 0.00 | 94 | 1029.2 |
| 20260831064510 | 54 | 230 | 0.0 | 0.0 | 0.00 | 0.00 | 0.00 | 94 | 1029.2 |
| 20260831064006 | 54 | 230 | 0.0 | 0.0 | 0.00 | 0.00 | 0.00 | 94 | 1029.2 |
| 20260831063501 | 54 | 230 | 0.0 | 0.0 | 0.00 | 0.00 | 0.00 | 94 | 1028.9 |
| 20260831062955 | 54 | 230 | 0.0 | 0.0 | 0.00 | 0.00 | 0.00 | 94 | 1029.0 |
| 20260831062451 | 54 | 230 | 0.0 | 0.0 | 0.00 | 0.00 | 0.00 | 94 | 1029.2 |
| 20260831061950 | 54 | 230 | 0.0 | 0.0 | 0.00 | 0.00 | 0.00 | 94 | 1029.4 |
| 20260831061448 | 54 | 230 | 0.0 | 0.0 | 0.00 | 0.00 | 0.00 | 94 | 1029.2 |
| 20260831060945 | 54 | 230 | 0.0 | 0.0 | 0.00 | 0.00 | 0.00 | 94 | 1029.0 |
| 20260831060445 | 54 | 230 | 0.0 | 0.0 | 0.00 | 0.00 | 0.00 | 94 | 1029.1 |
| 20260831055939 | 54 | 230 | 0.0 | 0.0 | 0.00 | 0.00 | 0.00 | 94 | 1028.7 |
| 20260831055434 | 54 | 230 | 0.0 | 0.0 | 0.00 | 0.00 | 0.00 | 94 | 1029.0 |
| 20260831054930 | 54 | 230 | 0.0 | 0.0 | 0.00 | 0.00 | 0.00 | 94 | 1028.7 |
| 20260831054429 | 54 | 230 | 0.0 | 0.0 | 0.00 | 0.00 | 0.00 | 94 | 1028.9 |
| 20260831053924 | 54 | 230 | 0.0 | 0.0 | 0.00 | 0.00 | 0.00 | 94 | 1028.6 |
| 20260831053421 | 54 | 230 | 0.0 | 0.0 | 0.00 | 0.00 | 0.00 | 94 | 1028.5 |
| 20260831052916 | 55 | 230 | 0.0 | 0.0 | 0.00 | 0.00 | 0.00 | 94 | 1028.5 |
| 20260831052415 | 55 | 230 | 0.0 | 0.0 | 0.00 | 0.00 | 0.00 | 94 | 1028.5 |
| 20260831051914 | 55 | 230 | 0.0 | 0.0 | 0.00 | 0.00 | 0.00 | 94 | 1028.5 |
| 20260831051413 | 55 | 230 | 0.0 | 0.0 | 0.00 | 0.00 | 0.00 | 94 | 1028.5 |
| 20260831050908 | 55 | 230 | 0.0 | 0.0 | 0.00 | 0.00 | 0.00 | 94 | 1028.7 |
| 20260831050408 | 55 | 230 | 0.0 | 0.0 | 0.00 | 0.00 | 0.00 | 94 | 1028.3 |
| 20260831045901 | 55 | 230 | 0.0 | 0.0 | 0.00 | 0.00 | 0.00 | 94 | 1028.4 |
| 20260831045355 | 55 | 230 | 0.0 | 0.0 | 0.00 | 0.00 | 0.00 | 94 | 1028.4 |
| 20260831044850 | 55 | 230 | 0.0 | 0.0 | 0.00 | 0.00 | 0.00 | 94 | 1028.3 |
| 20260831044351 | 55 | 230 | 0.0 | 0.0 | 0.00 | 0.00 | 0.00 | 94 | 1028.3 |
| 20260831043847 | 55 | 230 | 0.0 | 0.0 | 0.00 | 0.00 | 0.00 | 94 | 1028.5 |
| 20260831043346 | 55 | 230 | 0.0 | 0.0 | 0.00 | 0.00 | 0.00 | 94 | 1028.3 |
| 20260831042842 | 55 | 230 | 0.0 | 0.0 | 0.00 | 0.00 | 0.00 | 94 | 1028.3 |
| 20260831042341 | 55 | 230 | 0.0 | 0.0 | 0.00 | 0.00 | 0.00 | 94 | 1028.4 |
| 20260831041836 | 56 | 230 | 0.0 | 0.0 | 0.00 | 0.00 | 0.00 | 94 | 1028.4 |
| 20260831041335 | 56 | 230 | 0.0 | 0.0 | 0.00 | 0.00 | 0.00 | 94 | 1028.4 |
| 20260831040830 | 56 | 230 | 0.0 | 0.0 | 0.00 | 0.00 | 0.00 | 94 | 1028.2 |
| 20260831040329 | 57 | 230 | 0.0 | 0.0 | 0.00 | 0.00 | 0.00 | 93 | 1028.3 |
| 20260831035828 | 57 | 230 | 0.0 | 0.0 | 0.00 | 0.01 | 0.01 | 93 | 1028.3 |
| 20260831035327 | 57 | 230 | 0.0 | 0.0 | 0.00 | 0.01 | 0.01 | 93 | 1028.4 |
| 20260831034822 | 57 | 230 | 0.0 | 0.0 | 0.00 | 0.01 | 0.01 | 93 | 1028.2 |
| 20260831034317 | 57 | 230 | 0.0 | 0.0 | 0.00 | 0.01 | 0.01 | 93 | 1028.3 |
| 20260831033812 | 58 | 230 | 0.0 | 0.0 | 0.00 | 0.01 | 0.01 | 92 | 1028.4 |
| 20260831033307 | 58 | 230 | 0.0 | 0.0 | 0.00 | 0.01 | 0.01 | 92 | 1028.2 |
| 20260831032803 | 58 | 230 | 0.0 | 0.0 | 0.00 | 0.01 | 0.01 | 92 | 1028.3 |
| 20260831032257 | 59 | 230 | 0.0 | 0.0 | 0.00 | 0.01 | 0.01 | 91 | 1028.1 |
| 20260831031752 | 59 | 230 | 0.0 | 0.0 | 0.00 | 0.01 | 0.01 | 91 | 1028.0 |
| 20260831031251 | 59 | 230 | 0.0 | 0.0 | 0.00 | 0.01 | 0.01 | 91 | 1027.8 |
| 20260831030746 | 59 | 230 | 0.0 | 0.0 | 0.00 | 0.01 | 0.01 | 90 | 1027.9 |
| 20260831030244 | 59 | 230 | 0.0 | 0.0 | 0.00 | 0.01 | 0.01 | 90 | 1027.9 |
| 20260831025744 | 60 | 230 | 0.0 | 1.0 | 0.07 | 0.01 | 0.01 | 89 | 1028.3 |
| 20260831025238 | 60 | 230 | 0.0 | 0.0 | 0.07 | 0.01 | 0.01 | 87 | 1027.9 |
| 20260831024735 | 60 | 230 | 0.0 | 0.0 | 0.00 | 0.00 | 0.00 | 85 | 1027.9 |
| 20260831024233 | 61 | 230 | 0.0 | 1.0 | 0.00 | 0.00 | 0.00 | 84 | 1028.6 |
| 20260831023732 | 62 | 230 | 0.0 | 0.0 | 0.00 | 0.00 | 0.00 | 84 | 1028.3 |
| 20260831023231 | 62 | 230 | 0.0 | 0.0 | 0.00 | 0.00 | 0.00 | 79 | 1028.4 |
| 20260831022726 | 62 | 230 | 1.0 | 2.0 | 0.00 | 0.00 | 0.00 | 80 | 1028.3 |
| 20260831022221 | 62 | 230 | 0.0 | 2.0 | 0.00 | 0.00 | 0.00 | 80 | 1028.4 |
| 20260831021720 | 62 | 230 | 0.0 | 2.0 | 0.00 | 0.00 | 0.00 | 80 | 1028.2 |
| 20260831021215 | 62 | 230 | 0.0 | 0.0 | 0.00 | 0.00 | 0.00 | 81 | 1028.3 |
| 20260831020712 | 62 | 230 | 0.0 | 2.0 | 0.00 | 0.00 | 0.00 | 80 | 1028.5 |
| 20260831020210 | 62 | 230 | 1.0 | 2.0 | 0.00 | 0.00 | 0.00 | 79 | 1028.6 |
| 20260831015706 | 63 | 230 | 1.0 | 4.0 | 0.00 | 0.00 | 0.00 | 80 | 1028.2 |
| 20260831015201 | 63 | 230 | 1.0 | 2.0 | 0.00 | 0.00 | 0.00 | 80 | 1028.1 |
| 20260831014656 | 64 | 230 | 1.0 | 2.0 | 0.00 | 0.00 | 0.00 | 78 | 1028.4 |
| 20260831014151 | 66 | 230 | 1.0 | 6.0 | 0.00 | 0.00 | 0.00 | 73 | 1028.0 |
| 20260831013647 | 67 | 230 | 2.0 | 9.0 | 0.00 | 0.00 | 0.00 | 69 | 1028.0 |
| 20260831013146 | 66 | 230 | 3.0 | 6.0 | 0.00 | 0.00 | 0.00 | 71 | 1027.8 |
| 20260831012642 | 64 | 230 | 2.0 | 2.0 | 0.00 | 0.00 | 0.00 | 82 | 1027.5 |
| 20260831012137 | 64 | 230 | 0.0 | 0.0 | 0.00 | 0.00 | 0.00 | 82 | 1027.0 |
| 20260831011636 | 64 | 230 | 0.0 | 0.0 | 0.00 | 0.00 | 0.00 | 82 | 1026.8 |
| 20260831011132 | 64 | 230 | 0.0 | 0.0 | 0.00 | 0.00 | 0.00 | 82 | 1026.9 |
| 20260831010627 | 64 | 230 | 0.0 | 0.0 | 0.00 | 0.00 | 0.00 | 82 | 1026.5 |
| 20260831010122 | 64 | 230 | 0.0 | 0.0 | 0.00 | 0.00 | 0.00 | 82 | 1026.3 |
| 20260831005617 | 64 | 230 | 0.0 | 0.0 | 0.00 | 0.00 | 0.00 | 82 | 1026.5 |
| 20260831005112 | 64 | 230 | 0.0 | 0.0 | 0.00 | 0.00 | 0.00 | 82 | 1026.4 |
| 20260831004608 | 64 | 230 | 0.0 | 0.0 | 0.00 | 0.00 | 0.00 | 82 | 1026.3 |
| 20260831004103 | 64 | 230 | 0.0 | 0.0 | 0.00 | 0.00 | 0.00 | 82 | 1026.3 |
| 20260831003600 | 65 | 230 | 0.0 | 0.0 | 0.00 | 0.00 | 0.00 | 82 | 1026.1 |
| 20260831003055 | 65 | 230 | 0.0 | 0.0 | 0.00 | 0.00 | 0.00 | 82 | 1026.2 |
| 20260831002554 | 65 | 230 | 0.0 | 0.0 | 0.00 | 0.00 | 0.00 | 81 | 1026.1 |
| 20260831002049 | 66 | 230 | 0.0 | 0.0 | 0.00 | 0.00 | 0.00 | 79 | 1026.4 |
| 20260831001544 | 66 | 230 | 0.0 | 0.0 | 0.00 | 0.00 | 0.00 | 78 | 1026.3 |
| 20260831001041 | 67 | 230 | 0.0 | 0.0 | 0.00 | 0.00 | 0.00 | 78 | 1026.2 |
| 20260831000537 | 67 | 230 | 0.0 | 0.0 | 0.00 | 0.00 | 0.00 | 77 | 1026.1 |
| 20260831000036 | 67 | 230 | 0.0 | 0.0 | 0.00 | 0.00 | 0.00 | 77 | 1026.2 |
| 20260830235535 | 67 | 230 | 0.0 | 0.0 | 0.00 | 0.00 | 0.00 | 77 | 1026.0 |
| 20260830235031 | 67 | 230 | 0.0 | 0.0 | 0.00 | 0.00 | 0.00 | 77 | 1026.0 |
| 20260830234525 | 67 | 230 | 0.0 | 0.0 | 0.00 | 0.00 | 0.00 | 77 | 1025.8 |
| 20260830234021 | 68 | 230 | 0.0 | 0.0 | 0.00 | 0.00 | 0.00 | 77 | 1025.9 |
| 20260830233516 | 68 | 230 | 0.0 | 0.0 | 0.00 | 0.00 | 0.00 | 77 | 1025.9 |
| 20260830233012 | 68 | 230 | 0.0 | 0.0 | 0.00 | 0.00 | 0.00 | 75 | 1025.8 |
| 20260830232508 | 68 | 230 | 0.0 | 0.0 | 0.00 | 0.00 | 0.00 | 75 | 1025.8 |
| 20260830232004 | 68 | 230 | 0.0 | 0.0 | 0.00 | 0.00 | 0.00 | 75 | 1025.8 |
| 20260830231459 | 68 | 230 | 0.0 | 0.0 | 0.00 | 0.00 | 0.00 | 75 | 1026.0 |
| 20260830230958 | 69 | 230 | 0.0 | 0.0 | 0.00 | 0.00 | 0.00 | 74 | 1025.7 |
| 20260830230454 | 69 | 230 | 0.0 | 0.0 | 0.00 | 0.00 | 0.00 | 74 | 1025.7 |
| 20260830225952 | 69 | 230 | 0.0 | 1.0 | 0.00 | 0.00 | 0.00 | 74 | 1025.9 |
| 20260830225449 | 69 | 230 | 0.0 | 0.0 | 0.00 | 0.00 | 0.00 | 72 | 1025.9 |
| 20260830224948 | 69 | 230 | 0.0 | 0.0 | 0.00 | 0.00 | 0.00 | 74 | 1025.9 |
| 20260830224447 | 69 | 230 | 0.0 | 1.0 | 0.00 | 0.00 | 0.00 | 72 | 1025.8 |
| 20260830223944 | 69 | 230 | 0.0 | 0.0 | 0.00 | 0.00 | 0.00 | 75 | 1025.7 |
| 20260830223441 | 69 | 230 | 0.0 | 0.0 | 0.00 | 0.00 | 0.00 | 75 | 1025.9 |